Location: Izdebno
(52.6670°N, 16.2170°E)
Time: 13:03:41
(UTC+02:00)

Vanguard 2 - Pass Details

Date: 07 February 2023
Orbit: 553 x 2927 km, 32.9° (Epoch: 26 March)

Event Time Altitude Azimuth Distance (km) Brightness Sun altitude
Rises 18:49:00 0° 187° (S) 4,674 11.6 -18.0°
Reaches altitude 10° 18:54:02 10° 164° (SSE) 4,191 11.1 -18.8°
Maximum altitude 18:59:15 14° 137° (SE) 4,314 10.9 -19.6°
Enters shadow 19:01:07 14° 128° (SE) 4,495 11.0 -19.9°
Drops below altitude 10° 19:05:23 10° 111° (ESE) 5,104 - -20.5°
Sets 19:12:57 0° 92° (E) 6,524 - -21.7°
